Tracking 31027 objects as of 19-Jul-2025
HD Live streaming from Space Station
objects crossing your sky now

PSLV R/B

Track PSLV R/B now!
10-day predictions


NORAD ID: 28651
Int'l Code: 2005-017C
Perigee: 595.1 km
Apogee: 688.7 km
Inclination: 97.9 °
Period: 97.4 minutes
Semi major axis: 7012 km
RCS: 6.3542 m2 (large)
Launch date: May 5, 2005
Source: India (IND)
Launch site: SRIHARIKOTA (SRI)

Note: This is a ROCKET BODY
Your satellite tracking list
Your tracking list is empty




NASA's NSSDC Master Catalog

Two Line Element Set (TLE):
1 28651U 05017C   25199.76195244  .00000721  00000-0  10309-3 0  9995
2 28651  97.8868 105.2020 0066706 306.6022  52.9064 14.78280191 85778
Source of the keplerian elements: AFSPC